[[{"header":{"parameterUnit":"m.s-1","parameterCategory":1,"la1":30.2991,"la2":30.254,"lo1":-89.0895,"lo2":-89.0444,"dy":0.0017,"dx":0.0017,"nx":28,"ny":28,"refTime":"2023-11-03T03:00:00:Z","depth":0,"parameterNumber":2,"parameterNumberName":"U-component_of_WINDS"},"data":[0,0,0,0,0,0,0,0,0,0,0,0,0,0,0,0,0,0,0,0,0,0,0,0,0,0,0,0,0,0,0,0,0,0,0,0,0,0,0,0,0,0,0,0,0,0,0,0,0,0,0,0,0,0,0,0,0,0,0.6083,0.6083,0,0.6106,0.6106,0.6106,0.6123,0.6123,0.6123,0.6123,0.6145,0.6145,0.6146,0,0,0,0,0,0,0,0,0,0,0,0,0,0.6051,0.6052,0.6083,0.6083,0.6084,0.6106,0.6106,0.6106,0.6123,0.6123,0.6123,0.6123,0.6145,0.6145,0.6146,0,0,0,0,0,0,0,0,0,0,0,0,0,0.6069,0.6052,0.6083,0.6095,0.6096,0.6105,0.6106,0.6106,0.6122,0.6123,0.6123,0.6123,0.6144,0.6145,0.6146,0.6145,0,0,0.6148,0.6148,0,0,0,0,0,0,0,0,0.6068,0.607,0.6093,0.6094,0.6095,0.6112,0.6103,0.6119,0.6122,0.6112,0.6123,0.6123,0.6133,0.6135,0.6139,0.6146,0.6147,0.6148,0.6148,0.6148,0.6149,0,0,0,0,0,0,0,0.6066,0.6069,0.6092,0.6093,0.6094,0.6097,0.61,0.6106,0.6121,0.6113,0.6114,0.6117,0.6134,0.6138,0.6139,0.6148,0.6148,0.6148,0.6149,0.6149,0.6153,0.6153,0,0,0,0,0,0,0.6064,0.6068,0.6091,0.6093,0.6082,0.6098,0.6101,0.6106,0.6121,0.6124,0.6117,0.6118,0.6137,0.6138,0.614,0.6139,0.6148,0.6149,0.6149,0.6153,0.6153,0.6152,0,0,0,0,0,0,0.6063,0.6066,0.609,0.6081,0.6084,0.6098,0.6104,0.6106,0.611,0.6124,0.6127,0.6118,0.6137,0.6139,0.6143,0.614,0.6149,0.615,0.6153,0.6153,0.6153,0.6137,0,0,0,0,0,0,0.6062,0.6065,0.6066,0.608,0.6084,0.6094,0.6104,0.6107,0.6111,0.6113,0.6126,0.6128,0.6137,0.6142,0.6144,0.6141,0.615,0.6154,0.6153,0.6153,0.6138,0.6136,0.6135,0,0,0,0,0,0.6061,0.6062,0.6066,0.6069,0.6086,0.6094,0.6096,0.6107,0.6111,0.6112,0.612,0.6128,0.614,0.6142,0.6145,0.6142,0.6154,0.6153,0.6153,0.6139,0.6137,0.6135,0,0,0,0,0,0,0.6047,0.6064,0.6069,0.6075,0.6083,0.6097,0.6098,0.6105,0.6112,0.6113,0.6125,0.6128,0.613,0.6136,0.6139,0.614,0.6148,0.6147,0.6136,0.6134,0.6133,0.6131,0.6151,0,0,0,0,0,0.6045,0.605,0.6064,0.6068,0.6071,0.6084,0.6088,0.6095,0.6104,0.6107,0.6116,0.6124,0.6129,0.6132,0.6138,0.6139,0.6141,0.6138,0.6136,0.6135,0.6134,0.6132,0.613,0.615,0.615,0.615,0,0,0.604,0.605,0.6053,0.6065,0.6072,0.6077,0.6087,0.6092,0.6094,0.6108,0.6112,0.6118,0.6127,0.6129,0.6131,0.6135,0.6129,0.6134,0.6132,0.6133,0.6131,0.6129,0.6128,0.615,0.615,0.615,0,0,0.6033,0.6042,0.6044,0.6051,0.6061,0.6069,0.6069,0.6082,0.6086,0.609,0.61,0.6103,0.6112,0.6117,0.6121,0.6113,0.612,0.6115,0.6106,0.6104,0.6102,0.6101,0.6096,0.6094,0.6114,0.6114,0.6114,0,0.6026,0.6034,0.6045,0.6048,0.6053,0.6064,0.6066,0.6071,0.6083,0.6085,0.6089,0.6099,0.6107,0.6108,0.6106,0.6109,0.6109,0.6113,0.6102,0.61,0.6099,0.6095,0.6093,0.6113,0.6113,0.6113,0.6113,0,0.6023,0.6028,0.6029,0.6039,0.6043,0.6046,0.6056,0.6058,0.6065,0.6071,0.6074,0.6082,0.6089,0.609,0.6096,0.6092,0.6093,0.61,0.6107,0.6096,0.6092,0.6091,0.6112,0.6112,0.6113,0.6113,0,0,0.601,0.6024,0.6024,0.6028,0.6038,0.6042,0.6044,0.605,0.6051,0.6058,0.6058,0.6065,0.6069,0.6074,0.6081,0.6079,0.6069,0.6085,0.6085,0.608,0.6061,0.6056,0.6054,0.6073,0.6073,0.6073,0.606,0,0.6004,0.6009,0.6018,0.6019,0.6022,0.6032,0.6033,0.6039,0.6044,0.6047,0.6053,0.6056,0.6063,0.6065,0.6064,0.607,0.6065,0.6072,0.6072,0.6072,0.6069,0.6052,0.6047,0.6034,0.6059,0.6058,0.6058,0,0.5999,0.6004,0.6005,0.6013,0.6014,0.6016,0.602,0.6023,0.6029,0.6033,0.6036,0.6043,0.6043,0.605,0.605,0.6054,0.6054,0.6057,0.6057,0.6057,0.6064,0.605,0.6031,0.6029,0.6056,0.6056,0.6056,0,0.5987,0.5994,0.5995,0.5998,0.6008,0.6008,0.6012,0.6017,0.6019,0.6023,0.6024,0.6028,0.603,0.6031,0.6038,0.6043,0.6036,0.6044,0.6038,0.6037,0.6036,0.6036,0.6015,0.6038,0.6038,0.6038,0.6038,0,0.5979,0.5979,0.599,0.599,0.599,0.5999,0.5997,0.6002,0.6007,0.6007,0.6015,0.6015,0.6025,0.6025,0.6031,0.6028,0.6029,0.6031,0.6032,0.603,0.6029,0.603,0.603,0.6037,0.6038,0.6038,0.6038,0,0.5966,0.5974,0.5975,0.5983,0.5985,0.5984,0.599,0.599,0.5995,0.5995,0.5996,0.6003,0.6004,0.6011,0.6013,0.6016,0.6011,0.6015,0.6009,0.601,0.6002,0.6002,0.598,0.5977,0.6003,0.6003,0.6003,0,0.5961,0.5961,0.5968,0.5969,0.5972,0.5973,0.5975,0.5982,0.5983,0.5988,0.5987,0.5988,0.5989,0.5989,0.5994,0.5995,0.5998,0.599,0.5998,0.5994,0.5995,0.5995,0.5994,0.5988,0.5988,0.5988,0.5987,0,0.5949,0.5952,0.5954,0.5956,0.5958,0.596,0.5963,0.5963,0.5971,0.5971,0.5971,0.5972,0.5973,0.5973,0.5975,0.5977,0.5983,0.5985,0.5983,0.598,0.5976,0.5976,0.6003,0.5985,0.5985,0.5986,0.5986,0.5986,0.5939,0.5938,0.5942,0.5943,0.5946,0.5947,0.5947,0.5951,0.5951,0.5953,0.5957,0.5956,0.5958,0.596,0.5962,0.596,0.5964,0.5962,0.5961,0.596,0.5958,0.5977,0.596,0.5961,0.5961,0.5961,0.5961,0,0.5926,0.5929,0.593,0.5932,0.5932,0.5937,0.5939,0.5939,0.5938,0.594,0.594,0.5939,0.5938,0.5942,0.5941,0.5939,0.5941,0.5938,0.5938,0.5938,0.5955,0.5956,0.5936,0.5936,0.5936,0.5936,0.5936,0.5936,0.592,0.5918,0.5921,0.5919,0.5921,0.592,0.592,0.5921,0.5922,0.592,0.5919,0.5922,0.5923,0.5922,0.5921,0.5922,0.592,0.5916,0.5918,0.5934,0.5937,0.5939,0.594,0.5916,0.5916,0.59,0.59,0.59]},{"header":{"parameterUnit":"m.s-1","parameterCategory":1,"la1":30.2991,"la2":30.254,"lo1":-89.0895,"lo2":-89.0444,"dy":0.0017,"dx":0.0017,"nx":28,"ny":28,"refTime":"2023-11-03T03:00:00:Z","depth":0,"parameterNumber":3,"parameterNumberName":"V-component_of_WINDS"},"data":[0,0,0,0,0,0,0,0,0,0,0,0,0,0,0,0,0,0,0,0,0,0,0,0,0,0,0,0,0,0,0,0,0,0,0,0,0,0,0,0,0,0,0,0,0,0,0,0,0,0,0,0,0,0,0,0,0,0,1.0462,1.0462,0,1.0449,1.0448,1.0448,1.047,1.047,1.0471,1.0472,1.0456,1.0455,1.0454,0,0,0,0,0,0,0,0,0,0,0,0,0,1.0503,1.0503,1.0462,1.0462,1.0462,1.0449,1.0448,1.0448,1.047,1.047,1.0471,1.0472,1.0457,1.0455,1.0454,0,0,0,0,0,0,0,0,0,0,0,0,0,1.0487,1.0502,1.0462,1.0471,1.0472,1.0449,1.0448,1.0448,1.0469,1.047,1.0472,1.0473,1.0457,1.0455,1.0454,1.0421,0,0,1.0449,1.0448,0,0,0,0,0,0,0,0,1.0488,1.0486,1.047,1.047,1.0471,1.0462,1.0457,1.0439,1.0469,1.047,1.0472,1.0473,1.0457,1.0455,1.045,1.042,1.042,1.0448,1.0447,1.0447,1.0446,0,0,0,0,0,0,0,1.0489,1.0486,1.0457,1.0469,1.047,1.0474,1.0473,1.0454,1.0457,1.047,1.0472,1.047,1.0458,1.0452,1.045,1.042,1.0449,1.0447,1.0446,1.0445,1.0359,1.0357,0,0,0,0,0,0,1.049,1.0487,1.0457,1.0456,1.0482,1.0473,1.0472,1.0464,1.0458,1.0458,1.0469,1.0471,1.0454,1.0452,1.045,1.0408,1.0447,1.0445,1.0444,1.036,1.0358,1.0357,0,0,0,0,0,0,1.049,1.0487,1.0458,1.0472,1.0469,1.0471,1.0462,1.0463,1.0457,1.0457,1.0457,1.0463,1.0455,1.0452,1.0427,1.0408,1.0444,1.0443,1.0361,1.0359,1.0358,1.0327,0,0,0,0,0,0,1.0492,1.0487,1.0475,1.0472,1.0468,1.0436,1.0461,1.0462,1.0455,1.0457,1.0451,1.0451,1.0456,1.043,1.0426,1.0407,1.0442,1.0363,1.036,1.0358,1.033,1.0325,1.032,0,0,0,0,0,1.0493,1.0468,1.0475,1.0471,1.0454,1.0435,1.0433,1.0439,1.0453,1.044,1.044,1.0451,1.0412,1.0427,1.0423,1.0403,1.0364,1.0361,1.0358,1.0332,1.0326,1.032,0,0,0,0,0,0,1.0469,1.0467,1.0475,1.0448,1.0442,1.0439,1.0424,1.0433,1.0422,1.0424,1.0432,1.0431,1.0403,1.0401,1.0419,1.0369,1.039,1.0386,1.0372,1.0365,1.036,1.036,1.044,0,0,0,0,0,1.0461,1.0447,1.0446,1.0422,1.0419,1.0422,1.0414,1.0419,1.0413,1.041,1.0408,1.04,1.0385,1.0376,1.0363,1.033,1.0328,1.0314,1.0309,1.0305,1.0301,1.028,1.0274,1.0347,1.0347,1.0347,0,0,1.0443,1.0441,1.0431,1.0417,1.0413,1.0397,1.0419,1.0402,1.0389,1.0407,1.0383,1.0381,1.0373,1.0343,1.033,1.034,1.028,1.0302,1.0298,1.0296,1.0277,1.027,1.0264,1.0345,1.0346,1.0346,0,0,1.0402,1.04,1.0379,1.0373,1.0366,1.0368,1.0363,1.0359,1.0358,1.0334,1.0346,1.0331,1.0307,1.0299,1.0293,1.0247,1.0256,1.0243,1.0216,1.0195,1.019,1.0184,1.0165,1.0158,1.0239,1.0239,1.0239,0,1.0381,1.0358,1.0366,1.0347,1.034,1.0355,1.0332,1.0327,1.0316,1.0309,1.0321,1.0289,1.0285,1.0252,1.0241,1.0236,1.0228,1.0242,1.019,1.0185,1.018,1.0162,1.0155,1.0237,1.0237,1.0238,1.0238,0,1.033,1.0314,1.0298,1.0286,1.0277,1.0256,1.026,1.0249,1.0255,1.0255,1.0229,1.0225,1.0209,1.0203,1.0209,1.017,1.0176,1.0189,1.0209,1.0171,1.0154,1.0147,1.0235,1.0235,1.0236,1.0236,0,0,1.0274,1.0266,1.0259,1.0253,1.0246,1.0233,1.0212,1.0197,1.0187,1.0178,1.0159,1.0137,1.0148,1.0141,1.0146,1.0129,1.0089,1.0143,1.0143,1.013,1.0042,1.003,1.0022,1.0095,1.0094,1.0093,1.0042,0,1.023,1.0195,1.0201,1.0165,1.0149,1.0163,1.0144,1.0136,1.0136,1.0121,1.012,1.0103,1.0121,1.0116,1.0099,1.0097,1.007,1.0101,1.0075,1.0074,1.0074,1.0014,1.0002,0.9953,1.0035,1.0034,1.0033,0,1.0175,1.0164,1.0127,1.012,1.0113,1.0096,1.0082,1.0068,1.0059,1.006,1.005,1.0058,1.0035,1.0057,1.0024,1.0044,1.0034,1.0031,1.0029,1.0025,1.0049,1.0005,0.9938,0.993,1.0023,1.0024,1.0025,0,1.0134,1.011,1.0083,1.0078,1.007,1.0057,1.0053,1.0046,1.0035,1.0023,1.0016,1.0001,0.9992,0.9979,0.9981,0.9998,0.9946,0.997,0.9944,0.9943,0.993,0.993,0.9858,0.9929,0.9929,0.9929,0.9929,0,1.0083,1.0059,1.0064,1.0048,1.002,1.0027,1.0,0.9997,0.999,0.9972,0.9984,0.9966,0.9972,0.9954,0.9956,0.9926,0.9923,0.9921,0.9921,0.9918,0.9918,0.9909,0.9912,0.9927,0.9927,0.9928,0.9928,0,1.0031,1.0034,1.0006,1.0,0.9998,0.9978,0.9972,0.9956,0.9956,0.9933,0.9928,0.9927,0.9907,0.9909,0.9886,0.9887,0.9849,0.9855,0.9852,0.9852,0.9825,0.9826,0.9742,0.973,0.9811,0.981,0.981,0,0.9997,0.9979,0.9971,0.996,0.9955,0.9937,0.9927,0.9933,0.9921,0.9908,0.9892,0.9873,0.9858,0.9824,0.9821,0.9802,0.9806,0.9778,0.9803,0.98,0.9801,0.9801,0.9798,0.9772,0.9771,0.977,0.977,0,0.9936,0.9938,0.9923,0.9907,0.9894,0.9882,0.9872,0.9862,0.9866,0.9852,0.9831,0.9819,0.9795,0.9775,0.9757,0.9751,0.976,0.9762,0.9754,0.975,0.9747,0.9745,0.9835,0.9763,0.9764,0.9764,0.9765,0.9765,0.989,0.9873,0.9864,0.9846,0.9839,0.9828,0.9811,0.9809,0.9792,0.9773,0.9777,0.9753,0.9742,0.9719,0.9712,0.9691,0.9701,0.9691,0.9688,0.9685,0.968,0.9753,0.9689,0.9689,0.9689,0.9689,0.9689,0,0.9826,0.9821,0.9805,0.9789,0.9774,0.9785,0.9773,0.9759,0.9738,0.9727,0.9712,0.9686,0.9666,0.9661,0.9641,0.9625,0.9628,0.9619,0.9619,0.9616,0.9674,0.9681,0.9617,0.9617,0.9617,0.9617,0.9617,0.9617,0.9791,0.9762,0.9763,0.9729,0.9724,0.9701,0.9692,0.9681,0.9673,0.9644,0.9627,0.9624,0.9615,0.9594,0.9575,0.9574,0.9564,0.9553,0.9553,0.9606,0.9613,0.962,0.9626,0.9552,0.9552,0.9497,0.9496,0.9496]}]]